Location: Bismarck
(46.7731°N, 100.8200°W)
Time: 21:53:24
(UTC-05:00)

ISS - All Passes

Search period start: 04 May 2016 00:00
Search period end: 14 May 2016 00:00
Orbit: 402 x 405 km, 51.6° (Epoch: 04 May)

Date Brightness Start Highest point End Pass type
(mag) Time Alt. Az. Time Alt. Az. Time Alt. Az.
04 May - 07:02:19 10° SE 07:02:51 10° SE 07:03:23 10° ESE daylight
04 May - 08:35:30 10° SW 08:38:44 62° SSE 08:41:59 10° ENE daylight
04 May - 10:12:14 10° W 10:15:20 39° NNW 10:18:27 10° ENE daylight
04 May - 11:49:12 10° WNW 11:52:16 36° N 11:55:20 10° ENE daylight
04 May - 13:25:40 10° WNW 13:28:57 81° SSW 13:32:13 10° ESE daylight
04 May - 15:03:09 10° W 15:04:58 14° SW 15:06:47 10° S daylight
05 May - 07:43:16 10° SSW 07:46:18 36° SE 07:49:20 10° ENE daylight
05 May - 09:19:31 10° W 09:22:43 50° NNW 09:25:55 10° ENE daylight
05 May - 10:56:35 10° WNW 10:59:36 33° N 11:02:37 10° ENE daylight
05 May - 12:33:09 10° WNW 12:36:25 66° NNE 12:39:40 10° ESE daylight
05 May - 14:09:57 10° W 14:12:39 24° SW 14:15:21 10° SSE daylight
06 May - 06:51:22 10° S 06:53:56 21° SE 06:56:29 10° E daylight
06 May - 08:26:52 10° WSW 08:30:07 72° NNW 08:33:23 10° ENE daylight
06 May - 10:03:53 10° WNW 10:06:55 33° N 10:09:56 10° ENE daylight
06 May - 11:40:37 10° WNW 11:43:48 47° NNE 11:46:59 10° E daylight
06 May - 13:17:10 10° WNW 13:20:15 41° SW 13:23:21 10° SE daylight
07 May - 06:00:08 10° SSE 06:01:36 12° SE 06:03:04 10° ESE daylight
07 May - 07:34:18 10° SW 07:37:33 73° SSE 07:40:50 10° ENE daylight
07 May - 09:11:07 10° W 09:14:13 37° N 09:17:18 10° ENE daylight
07 May - 10:48:02 10° WNW 10:51:08 38° N 10:54:14 10° E daylight
07 May - 12:24:31 10° WNW 12:27:46 70° SSW 12:31:01 10° SE daylight
07 May - 14:02:27 10° WSW 14:03:42 12° SW 14:04:58 10° SSW daylight
08 May - 06:41:57 10° SW 06:45:03 43° SE 06:48:11 10° ENE daylight
08 May - 08:18:21 10° W 08:21:32 46° NNW 08:24:43 10° ENE daylight
08 May - 09:55:24 10° WNW 09:58:26 34° N 10:01:28 10° ENE daylight
08 May - 11:31:56 10° WNW 11:35:13 75° NNE 11:38:29 10° ESE daylight
08 May - 13:08:52 10° W 13:11:23 20° SW 13:13:52 10° S daylight
09 May - 05:49:52 10° SSW 05:52:37 25° SE 05:55:23 10° E daylight
09 May - 07:25:38 10° WSW 07:28:53 63° NNW 07:32:08 10° ENE daylight
09 May - 09:02:41 10° WNW 09:05:42 33° N 09:08:43 10° ENE daylight
09 May - 10:39:22 10° WNW 10:42:34 52° NNE 10:45:47 10° E daylight
09 May - 12:15:57 10° WNW 12:18:58 34° SW 12:21:57 10° SSE daylight
10 May - 04:58:17 10° S 05:00:14 15° SE 05:02:11 10° E visible
10 May - 06:33:00 10° WSW 06:36:16 85° SSE 06:39:33 10° ENE daylight
10 May - 08:09:54 10° WNW 08:12:58 35° N 08:16:02 10° ENE daylight
10 May - 09:46:46 10° WNW 09:49:53 40° NNE 09:53:00 10° E daylight
10 May - 11:23:14 10° WNW 11:26:28 59° SSW 11:29:41 10° SE daylight
11 May - 05:40:31 10° SW 05:43:42 51° SSE 05:46:54 10° ENE daylight
11 May - 07:17:06 10° W 07:20:14 42° NNW 07:23:23 10° ENE daylight
11 May - 08:54:06 10° WNW 08:57:09 34° N 09:00:11 10° ENE daylight
11 May - 10:30:36 10° WNW 10:33:53 85° NNE 10:37:09 10° ESE daylight
11 May - 12:07:44 10° W 12:09:58 17° SW 12:12:12 10° S daylight
12 May - 04:48:18 10° SSW 04:51:12 30° SE 04:54:07 10° E visible
12 May - 06:24:18 10° W 06:27:31 56° NNW 06:30:46 10° ENE daylight
12 May - 08:01:22 10° WNW 08:04:23 33° N 08:07:23 10° ENE daylight
12 May - 09:37:59 10° WNW 09:41:14 57° NNE 09:44:27 10° E daylight
12 May - 11:14:39 10° W 11:17:32 29° SW 11:20:25 10° SSE daylight
13 May - 03:56:28 10° S 03:58:44 18° SE 04:01:02 10° E visible
13 May - 05:31:35 10° WSW 05:34:51 84° NNW 05:38:08 10° ENE visible
13 May - 07:08:33 10° WNW 07:11:35 34° N 07:14:37 10° ENE daylight
13 May - 08:45:21 10° WNW 08:48:31 43° NNE 08:51:39 10° E daylight
13 May - 10:21:50 10° WNW 10:25:01 50° SSW 10:28:11 10° SE daylight
